DateTimeUTC,F1_A11,F1_S11,BsB_S11,BsG_S11,BsR_S11,BbsB_S11,BbsG_S11,BbsR_S11,BaB_A11,BaG_A11,BaR_A11,Tu_S11,T_S11,Uu_S11,U_S11,P_S11,T1_A11
2021-03-09T13:00:00Z,00000200,21000000,,,,,,,-000.04,-000.25,0000.34,17.9,25.0,00.6,00.4,0644.6,31.0
2021-03-09T13:01:00Z,00000200,21000000,,,,,,,0000.57,0000.37,0000.28,17.9,25.0,00.6,00.4,0644.6,31.0
2021-03-09T13:02:00Z,00000200,21000000,,,,,,,0000.12,0000.45,0000.15,17.9,25.0,00.6,00.4,0644.6,31.0
2021-03-09T13:03:00Z,00000200,61000000,,,,,,,0000.53,0000.31,-000.32,17.9,25.0,00.6,00.4,0644.6,31.0
2021-03-09T13:04:00Z,00000200,41000000,0001.17,0000.11,0000.07,-000.20,-000.08,-000.49,-000.18,-000.27,0000.27,18.0,24.9,01.1,00.7,0645.5,31.0
2021-03-09T13:05:00Z,00000200,01000000,0000.22,0000.29,0000.18,-000.34,0000.06,-000.06,0000.67,0000.33,0000.16,18.1,24.8,01.0,00.7,0645.6,31.0
2021-03-09T13:06:00Z,00000200,01000000,0000.06,-000.03,0000.07,-000.28,-000.01,0000.06,-000.02,0000.43,0000.14,18.1,24.8,01.1,00.7,0645.6,31.0
2021-03-09T13:07:00Z,00000200,01000000,0000.46,0000.10,0000.28,-000.09,-000.08,0000.19,0000.16,-000.07,0000.31,18.1,24.8,01.1,00.7,0645.6,31.0
2021-03-09T13:08:00Z,00000200,01000000,0000.42,-000.12,0000.26,-000.20,-000.14,0000.18,0000.06,0000.19,0000.09,18.1,24.8,01.1,00.8,0645.6,31.0
2021-03-09T13:09:00Z,00000200,01000000,-000.03,-000.07,0000.23,0000.14,-000.06,0000.29,0000.27,0000.39,-000.16,18.1,24.8,01.1,00.7,0645.6,31.0
2021-03-09T13:10:00Z,00000200,01000000,0000.56,0000.97,0000.44,0000.58,0000.14,-000.18,0000.87,0000.99,0001.26,18.1,24.8,01.2,00.8,0645.8,31.0
2021-03-09T13:11:00Z,00000200,01000000,-000.28,0000.26,0000.00,-000.05,0000.08,0000.02,0000.84,0000.55,0000.22,18.1,24.8,01.3,00.9,0645.8,31.0
2021-03-09T13:12:00Z,00000200,01000000,0000.27,0000.29,0000.30,-000.10,0000.01,-000.11,0000.64,0000.51,0000.74,18.1,24.8,01.5,01.0,0645.8,31.0
2021-03-09T13:13:00Z,00000200,01000000,0000.00,0000.08,0000.16,-000.23,-000.04,0000.15,0000.52,0000.57,0000.20,18.1,24.8,01.6,01.1,0645.8,31.0
2021-03-09T13:14:00Z,00000200,01000000,0000.11,0000.10,0000.20,-000.28,0000.10,0000.08,0000.57,0000.34,0000.16,18.1,24.8,01.5,01.0,0645.8,31.0
2021-03-09T13:15:00Z,00000200,01000000,0000.21,0000.21,-000.06,-000.17,-000.05,-000.11,0000.13,0000.39,0000.14,18.1,24.8,01.4,00.9,0645.8,31.0
2021-03-09T13:16:00Z,00000200,01000000,0000.49,0000.13,0000.30,0000.12,0000.03,0000.09,-000.05,-000.10,0000.26,18.1,24.8,01.5,01.0,0645.8,31.0
2021-03-09T13:17:00Z,00000200,01000000,0000.40,0000.39,0000.25,0000.02,0000.04,-000.04,0001.31,0001.27,0001.08,18.1,24.8,01.4,00.9,0645.8,31.0
2021-03-09T13:18:00Z,00000200,01000000,0002.34,0002.32,0001.14,0000.33,0000.41,0000.14,0034.23,0030.99,0024.68,18.1,24.8,01.4,00.9,0645.8,31.0
2021-03-09T13:19:00Z,00000200,01000000,0007.70,0005.73,0003.57,0001.69,0001.50,0001.15,0105.58,0098.24,0078.26,18.1,24.8,01.5,01.0,0645.8,31.0
2021-03-09T13:20:00Z,00000200,01000000,0010.07,0007.73,0005.10,0002.08,0001.58,0001.27,0134.70,0124.88,0099.81,18.1,24.8,01.6,01.0,0645.8,31.0
2021-03-09T13:21:00Z,00000200,01000000,0012.07,0008.97,0005.74,0002.52,0001.94,0001.31,0158.42,0147.06,0118.64,18.1,24.8,01.7,01.1,0645.8,31.0
2021-03-09T13:22:00Z,00000200,01000000,0011.47,0008.07,0004.71,0002.26,0002.13,0001.07,0151.13,0140.32,0112.94,18.1,24.8,01.8,01.2,0645.8,31.0
2021-03-09T13:23:00Z,00000200,01000000,0012.63,0010.09,0006.36,0002.53,0002.44,0001.82,0173.27,0160.57,0128.64,18.1,24.8,01.8,01.2,0645.8,31.0
2021-03-09T13:24:00Z,00000200,01000000,0013.73,0010.45,0006.62,0002.74,0002.31,0001.51,0177.13,0164.96,0133.12,18.1,24.8,01.6,01.1,0645.8,31.0
2021-03-09T13:25:00Z,00000200,01000000,0012.21,0008.89,0005.92,0002.91,0001.93,0001.64,0161.56,0150.43,0121.81,18.1,24.8,01.5,01.0,0645.8,31.0
2021-03-09T13:26:00Z,00000200,01000000,0005.89,0004.32,0002.45,0001.05,0001.02,0000.75,0085.23,0079.56,0064.36,18.2,24.8,01.5,01.0,0645.8,31.0
2021-03-09T13:27:00Z,00000200,01000000,0000.26,0000.26,0000.15,0000.14,-000.01,-000.09,0006.80,0006.21,0005.17,18.2,24.8,01.7,01.1,0645.7,31.0
2021-03-09T13:28:00Z,00000200,01000000,0000.03,0000.09,-000.11,0000.07,-000.30,-000.14,0002.49,0002.58,0001.83,18.2,24.8,01.8,01.2,0645.7,31.0
2021-03-09T13:29:00Z,00000200,00000000,0000.12,0000.05,0000.03,-000.12,0000.08,-000.02,0000.77,0000.64,0000.65,18.2,24.8,02.0,01.3,0645.7,31.0
2021-03-09T13:30:00Z,00000200,01000000,-000.17,0000.24,-000.25,0000.02,-000.04,-000.07,0000.88,0000.93,0000.66,18.2,24.9,01.8,01.2,0645.8,31.0
2021-03-09T13:31:00Z,00000200,01000000,-000.14,0000.30,-000.19,-000.11,-000.06,-000.01,0000.71,0000.53,0000.48,18.2,24.9,01.5,01.0,0645.8,31.0
2021-03-09T13:32:00Z,00000200,01000000,0000.09,-000.03,0000.08,-000.27,-000.04,0000.03,0000.16,0000.35,0000.36,18.2,24.9,01.4,00.9,0645.8,31.0
2021-03-09T13:33:00Z,00000200,01000000,0000.23,0000.08,0000.01,-000.06,0000.02,-000.21,0001.00,0000.49,0000.40,18.2,24.9,01.2,00.8,0645.8,31.0
2021-03-09T13:34:00Z,00000200,01000000,-000.01,0000.16,0000.07,0000.27,-000.02,-000.01,0000.15,0000.42,0000.24,18.3,24.9,01.1,00.8,0645.8,31.0
2021-03-09T13:35:00Z,00000200,01000000,0000.28,0000.32,0000.25,-000.15,-000.19,0000.13,0000.61,0000.73,0000.52,18.3,24.9,01.0,00.7,0645.8,31.0
2021-03-09T13:36:00Z,00000200,01000000,-000.17,0000.07,-000.15,0000.15,0000.11,-000.15,0000.49,0000.31,0000.38,18.3,24.9,01.0,00.7,0645.7,31.0
2021-03-09T13:37:00Z,00000200,01000000,0000.64,0000.10,0000.25,0000.22,-000.03,-000.05,0000.31,0000.76,0000.48,18.3,24.9,00.9,00.6,0645.7,31.0
2021-03-09T13:38:00Z,00000200,01000000,0000.23,0000.21,-000.05,0000.11,-000.17,-000.08,0000.57,0000.15,0000.08,18.3,24.9,00.9,00.6,0645.7,31.0
2021-03-09T13:39:00Z,00000200,01000000,0000.05,0000.14,0000.21,-000.04,-000.01,-000.15,0000.72,0000.48,0000.61,18.3,24.9,00.8,00.6,0645.7,31.0
2021-03-09T13:40:00Z,00000200,01000000,0000.20,0000.03,-000.11,0000.01,0000.11,-000.10,0000.63,0000.56,0000.60,18.3,24.9,00.8,00.5,0645.7,31.0
2021-03-09T13:41:00Z,00000200,01000000,-000.16,0000.03,0000.08,-000.03,-000.00,-000.06,0000.54,0000.88,0000.20,18.3,24.9,00.8,00.5,0645.7,31.0
2021-03-09T13:42:00Z,00000200,01000000,0000.05,-000.08,-000.04,-000.47,-000.13,-000.04,-000.04,-000.31,-000.09,18.3,24.9,00.8,00.5,0645.7,31.0
2021-03-09T13:43:00Z,00000200,01000000,-000.22,0000.07,0000.10,0000.36,0000.02,-000.26,0000.52,0000.54,0000.48,18.4,25.0,00.7,00.5,0645.7,31.0
2021-03-09T13:44:00Z,00000200,01000000,-000.41,-000.19,-000.04,-000.14,-000.07,-000.24,0000.53,0000.54,0000.61,18.4,25.0,00.8,00.5,0645.7,31.0
2021-03-09T13:45:00Z,00000200,01000000,0000.20,0000.37,-000.07,-000.18,0000.19,-000.02,0000.44,0000.63,0000.30,18.4,25.0,00.7,00.5,0645.7,31.0
2021-03-09T13:46:00Z,00000200,01000000,-000.48,-000.02,0000.06,-000.52,0000.19,-000.06,0000.66,-000.04,0000.08,18.4,25.0,00.8,00.5,0645.7,31.0
2021-03-09T13:47:00Z,00000200,01000000,-000.03,0000.19,0000.03,0000.04,-000.01,-000.14,-000.05,0000.57,0000.67,18.3,25.0,00.8,00.5,0645.7,31.0
2021-03-09T13:48:00Z,00000200,01000000,0000.12,-000.10,0000.07,0000.17,-000.03,0000.08,0000.63,0000.64,0000.05,18.4,25.0,00.7,00.5,0645.8,31.0
2021-03-09T13:49:00Z,00000200,01000000,0000.04,0000.12,0000.03,0000.03,-000.04,-000.22,0000.43,0000.22,0000.34,18.4,25.0,00.8,00.5,0645.7,31.0
2021-03-09T13:50:00Z,00000200,01000000,0000.36,0000.09,-000.05,-000.06,0000.14,-000.03,0000.27,0000.40,0000.27,18.4,25.0,00.8,00.5,0645.7,31.0
2021-03-09T13:51:00Z,00000200,01000000,0000.36,0000.20,0000.14,-000.55,-000.25,-000.07,0000.52,0000.03,0000.51,18.4,25.0,00.7,00.5,0645.7,31.0
2021-03-09T13:52:00Z,00000200,01000000,0000.12,0000.30,-000.26,0000.22,0000.13,-000.33,0000.21,0000.67,-000.05,18.4,25.0,00.8,00.5,0645.7,31.0
2021-03-09T13:53:00Z,00000200,01010000,0000.14,-000.22,-000.15,0000.05,0000.03,-000.15,0000.45,0000.18,0000.13,18.4,25.0,00.9,00.6,0645.7,31.0
2021-03-09T13:54:00Z,00000200,01000000,0000.45,-000.04,-000.10,-000.08,0000.02,-000.14,0000.21,0000.30,0000.52,18.4,25.0,00.9,00.6,0645.7,31.0
2021-03-09T13:55:00Z,00000200,01000000,-000.34,0000.17,0000.14,-000.19,0000.05,-000.16,-000.02,0000.03,-000.18,18.4,25.0,00.8,00.5,0645.7,31.0
2021-03-09T13:56:00Z,00000200,01000000,0000.07,0000.11,-000.24,0000.22,-000.09,0000.02,0000.52,0000.28,0000.30,18.4,25.0,00.8,00.5,0645.7,31.0
2021-03-09T13:57:00Z,00000200,41000000,,,,,,,0000.53,0000.79,0000.97,18.4,25.1,01.2,00.8,0645.8,31.0
2021-03-09T13:58:00Z,00000200,61000000,,,,,,,0000.29,0000.04,0000.04,18.2,25.2,00.7,00.4,0644.7,31.0
2021-03-09T13:59:00Z,00000200,21000000,,,,,,,0000.02,0000.06,0000.00,18.2,25.3,00.6,00.4,0644.7,31.0
